(233227) = 2001 WT91 = 2005 YK38

Discovered at Catalina on 2005-12-21 by CSS.

Orbit

Orbit type: Main Belt

Note: WebGL enabled browser required.

epoch2023-09-13.0
epoch JD2460200.5
perihelion date2020-10-14.16469
perihelion JD2459136.66469
argument of perihelion (°)37.21339
ascending node (°)35.58831
inclination (°)8.83549
eccentricity0.1126463
perihelion distance (AU)2.1489025
Tisserand w.r.t. Jupiter3.5
ΔV w.r.t. Earth (km/sec)9.5
semimajor axis (AU)2.4216978
mean anomaly (°)278.22639
mean daily motion (°/day)0.26153150
aphelion distance (AU)2.694
period (years)3.77
P-vector [x]0.29985621
P-vector [y]0.83415317
P-vector [z]0.46289820
Q-vector [x]-0.94978743
Q-vector [y]0.21557219
Q-vector [z]0.22678730
absolute magnitude16.41
phase slope0.15
uncertainty0
referenceMPO 778645
observations used517
oppositions14
arc length (days)9485
first opposition used1997
last opposition used2023
residual rms (arc-secs)0.75
perturbers coarse indicatorM-v
perturbers precise indicator003Ek
first observation date used1997-10-28.0
last observation date used2023-10-18.0
computer nameMPCLINUX
JD of orbit computation2456847.852433
perihelion JD uncertainty (days)3.4931E-04
argument of perihelion uncertainty (°)1.0602E-04
ascending node uncertainty (°)4.2035E-05
inclination uncertainty (°)7.8789E-06
eccentricity uncertainty 7.2570E-08
perihelion distance uncertainty (AU)1.9211E-07
Minimum Orbit Intersection Distances (in AU)
for orbit epoch: 2460200.5, reference: E2023-UA0
Mercury1.84145
Venus1.43293
Earth1.16858
Mars0.61639
Jupiter2.58152
Saturn6.9178
Uranus15.9876
Neptune27.5707

Observations

536 total observations over interval: 1997 10 28.95963 – 2023 10 18.260752
These data are available for download (format description).

Date (UT) J2000 RA J2000 Dec Magn Location Ref
1997 10 28.95963 02 01 03.81 +11 41 24.0 18.8 V 557 – Ondrejov MPS 157876
1997 10 28.98028 02 01 02.40 +11 41 23.4   557 – Ondrejov MPS 157876
2001 11 11.35623 05 01 11.13 +30 17 35.1 19.4   704 – Lincoln Laboratory ETS, New Mexico MPS 157876
2001 11 11.37087 05 01 10.48 +30 17 40.3 19.9   704 – Lincoln Laboratory ETS, New Mexico MPS 157876
2001 11 11.38551 05 01 09.65 +30 17 45.1 18.9   704 – Lincoln Laboratory ETS, New Mexico MPS 157876
2001 11 11.40014 05 01 08.89 +30 17 50.7 19.2   704 – Lincoln Laboratory ETS, New Mexico MPS 157876
2001 11 11.41478 05 01 08.24 +30 17 55.6 19.2   704 – Lincoln Laboratory ETS, New Mexico MPS 157876
2001 11 21.33121 04 51 47.76 +31 07 48.6 19.0   704 – Lincoln Laboratory ETS, New Mexico MPS 49701
2001 11 21.34642 04 51 46.76 +31 07 52.7 19.1   704 – Lincoln Laboratory ETS, New Mexico MPS 49701
2001 11 21.36147 04 51 45.74 +31 07 56.5 19.2   704 – Lincoln Laboratory ETS, New Mexico MPS 49701
2001 11 24.28503 04 48 30.93 +31 20 03.1 19.2   704 – Lincoln Laboratory ETS, New Mexico MPS 49701
2001 11 24.28900 04 48 30.67 +31 20 04.2 19.1   704 – Lincoln Laboratory ETS, New Mexico MPS 49701
2001 11 24.29977 04 48 29.87 +31 20 07.1 18.9   704 – Lincoln Laboratory ETS, New Mexico MPS 49701
2001 11 24.30373 04 48 29.66 +31 20 08.7 19.1   704 – Lincoln Laboratory ETS, New Mexico MPS 49701
2001 11 24.31449 04 48 28.81 +31 20 10.2 18.8   704 – Lincoln Laboratory ETS, New Mexico MPS 49701
2001 11 24.31847 04 48 28.58 +31 20 10.5 19.2   704 – Lincoln Laboratory ETS, New Mexico MPS 49701
2001 11 24.32923 04 48 27.79 +31 20 13.5 18.9   704 – Lincoln Laboratory ETS, New Mexico MPS 49701
2001 11 24.33319 04 48 27.64 +31 20 13.7 19.5   704 – Lincoln Laboratory ETS, New Mexico MPS 49701
2001 12 09.24251 04 30 29.37 +31 59 17.1 19.9   704 – Lincoln Laboratory ETS, New Mexico MPS 157876
2001 12 09.25748 04 30 28.36 +31 59 17.4 19.4   704 – Lincoln Laboratory ETS, New Mexico MPS 157876
2001 12 09.28743 04 30 25.99 +31 59 20.6 19.5   704 – Lincoln Laboratory ETS, New Mexico MPS 157876
2001 12 09.30241 04 30 25.00 +31 59 20.8 19.2   704 – Lincoln Laboratory ETS, New Mexico MPS 157876
2005 12 10.31354 08 16 18.84 +33 14 20.0 18.7 V 703 – Catalina Sky Survey MPS 157876
2005 12 10.32053 08 16 18.66 +33 14 23.3 19.8 V 703 – Catalina Sky Survey MPS 157876
2005 12 10.32747 08 16 18.62 +33 14 25.4 20.2 V 703 – Catalina Sky Survey MPS 157876
2005 12 10.33441 08 16 18.55 +33 14 29.1 20.9 V 703 – Catalina Sky Survey MPS 157876
2005 12 21.44263 08 10 55.99 +34 35 56.4 19.0 V 703 – Catalina Sky Survey MPS 156713
2005 12 21.45088 08 10 55.63 +34 35 59.3 19.0 V 703 – Catalina Sky Survey MPS 156713
2005 12 21.45912 08 10 55.30 +34 36 02.8 18.7 V 703 – Catalina Sky Survey MPS 156713
2005 12 21.46738 08 10 54.80 +34 36 06.1 18.7 V 703 – Catalina Sky Survey MPS 156713
2005 12 24.33219 08 08 45.73 +34 56 47.7 18.7   704 – Lincoln Laboratory ETS, New Mexico MPS 156713
2005 12 24.34534 08 08 45.03 +34 56 53.4 18.9   704 – Lincoln Laboratory ETS, New Mexico MPS 156713
2005 12 24.35834 08 08 44.32 +34 56 59.5 19.1   704 – Lincoln Laboratory ETS, New Mexico MPS 156713
2005 12 24.37144 08 08 43.68 +34 57 03.3 19.7   704 – Lincoln Laboratory ETS, New Mexico MPS 156713
2005 12 29.41938 08 04 13.46 +35 31 52.3 18.8 R 644 – Palomar Mountain/NEAT MPS 157876
2005 12 29.44121 08 04 12.14 +35 32 00.6 19.1 R 644 – Palomar Mountain/NEAT MPS 157876
2005 12 29.51924 08 04 07.37 +35 32 30.8 18.7 R 644 – Palomar Mountain/NEAT MPS 157876
2006 01 02.26462 08 00 17.64 +35 56 12.1 18.5 V 703 – Catalina Sky Survey MPS 157876
2006 01 02.27194 08 00 17.13 +35 56 15.6 18.7 V 703 – Catalina Sky Survey MPS 157876
2006 01 02.27926 08 00 16.56 +35 56 17.5 18.9 V 703 – Catalina Sky Survey MPS 157876
2006 01 02.28656 08 00 16.05 +35 56 21.0 19.4 V 703 – Catalina Sky Survey MPS 157876
2006 01 22.25723 07 36 43.29 +37 11 50.2 19.1   704 – Lincoln Laboratory ETS, New Mexico MPS 160516
2006 01 22.26993 07 36 42.36 +37 11 52.0 20.2   704 – Lincoln Laboratory ETS, New Mexico MPS 160516
2006 01 22.28248 07 36 41.48 +37 11 52.1 20.0   704 – Lincoln Laboratory ETS, New Mexico MPS 160516
2006 01 22.30774 07 36 39.55 +37 11 54.1 19.8   704 – Lincoln Laboratory ETS, New Mexico MPS 160516
2006 01 22.34002 07 36 37.33 +37 11 55.1 18.7 V 703 – Catalina Sky Survey MPS 160516
2006 01 22.34755 07 36 36.75 +37 11 55.9 19.1 V 703 – Catalina Sky Survey MPS 160516
2006 01 22.35504 07 36 36.25 +37 11 56.9 19.3 V 703 – Catalina Sky Survey MPS 160516
2006 01 22.36253 07 36 35.60 +37 11 56.4 19.4 V 703 – Catalina Sky Survey MPS 160516
2006 02 04.31533 07 23 35.70 +37 05 49.2 19.1 R 699 – Lowell Observatory-LONEOS MPS 163258
2006 02 04.34182 07 23 34.33 +37 05 46.1   699 – Lowell Observatory-LONEOS MPS 163258
2006 02 04.36833 07 23 32.97 +37 05 42.6   699 – Lowell Observatory-LONEOS MPS 163258
2006 02 04.39487 07 23 31.61 +37 05 38.5   699 – Lowell Observatory-LONEOS MPS 163258
2008 08 06.59890 23 49 03.86 -14 11 31.4 20.6 V E12 – Siding Spring Survey MPS 254024
2008 08 06.60925 23 49 03.72 -14 11 35.1 20.9 V E12 – Siding Spring Survey MPS 254024
2008 08 06.61958 23 49 03.39 -14 11 37.2 20.3 V E12 – Siding Spring Survey MPS 254024
2008 08 06.63006 23 49 03.14 -14 11 38.4 20.4 V E12 – Siding Spring Survey MPS 254024
2008 09 06.34149 23 26 55.03 -16 28 02.0 19.2 V 703 – Catalina Sky Survey MPS 255880
2008 09 06.34986 23 26 54.56 -16 28 04.5 19.9 V 703 – Catalina Sky Survey MPS 255880
2008 09 06.35817 23 26 53.98 -16 28 06.8 19.7 V 703 – Catalina Sky Survey MPS 255880
2008 09 06.36653 23 26 53.48 -16 28 07.4 19.6 V 703 – Catalina Sky Survey MPS 255880
2009 09 24.48059 08 40 31.47 +25 29 59.7 21.5 V G96 – Mt. Lemmon Survey MPS 295869
2009 09 24.48736 08 40 32.19 +25 29 56.7 21.6 V G96 – Mt. Lemmon Survey MPS 295869
2009 09 24.49434 08 40 33.06 +25 29 54.8 21.0 V G96 – Mt. Lemmon Survey MPS 295869
2009 09 24.50115 08 40 33.88 +25 29 53.7 20.7 V G96 – Mt. Lemmon Survey MPS 295869
2010 02 06.88856 10 31 05.16 +24 45 48.3 19.7 C 114 – Engelhardt Observatory, Zelenchukskaya Station MPS 313243
2010 02 06.89253 10 31 04.93 +24 45 50.4 19.6 C 114 – Engelhardt Observatory, Zelenchukskaya Station MPS 313243
2010 02 15.362164 10 22 16.413 +25 27 14.46 20.38 g F51 – Pan-STARRS 1, Haleakala MPS 338854
2010 02 15.371427 10 22 15.782 +25 27 16.73 19.98 g F51 – Pan-STARRS 1, Haleakala MPS 338854
2010 02 21.359152 10 15 42.018 +25 48 40.38 19.05 r F51 – Pan-STARRS 1, Haleakala MPS 338854
2010 02 21.367843 10 15 41.426 +25 48 42.05 19.12 r F51 – Pan-STARRS 1, Haleakala MPS 338854
2010 03 03.510298 10 05 00.249 +26 06 08.65 19.28 i F51 – Pan-STARRS 1, Haleakala MPS 338854
2010 03 03.519202 10 04 59.706 +26 06 08.73 19.46 i F51 – Pan-STARRS 1, Haleakala MPS 338854
2010 05 10.647326 10 01 54.84 +19 50 29.4   C51 – WISE MPS 346163
2010 05 10.911934 10 02 07.63 +19 48 04.9   C51 – WISE MPS 346163
2010 05 11.176543 10 02 20.60 +19 45 41.9   C51 – WISE MPS 346163
2010 05 11.308847 10 02 27.10 +19 44 27.4   C51 – WISE MPS 346163
2010 05 11.375063 10 02 30.27 +19 43 52.8   C51 – WISE MPS 346163
2010 05 11.771975 10 02 50.00 +19 40 14.4   C51 – WISE MPS 346163
2010 05 12.036583 10 03 03.23 +19 37 51.8   C51 – WISE MPS 346163
2012 09 11.29648 01 42 09.03 +03 45 24.7 19.8 G G45 – Space Surveillance Telescope, Atom Site MPS 1608051
2012 09 11.30799 01 42 08.66 +03 45 24.5 20.5 G G45 – Space Surveillance Telescope, Atom Site MPS 1608051
2012 09 11.33370 01 42 07.95 +03 45 25.0 19.6 G G45 – Space Surveillance Telescope, Atom Site MPS 1608051
2012 09 11.40260 01 42 06.00 +03 45 23.0 19.7 G G45 – Space Surveillance Telescope, Atom Site MPS 1608051
2012 09 11.41447 01 42 05.67 +03 45 23.1 19.7 G G45 – Space Surveillance Telescope, Atom Site MPS 1608052
2012 09 15.31712 01 40 09.38 +03 43 13.8 19.0   704 – Lincoln Laboratory ETS, New Mexico MPS 433138
2012 09 15.34529 01 40 08.35 +03 43 12.1 19.0   704 – Lincoln Laboratory ETS, New Mexico MPS 433138
2012 09 15.35938 01 40 07.95 +03 43 10.3 19.8   704 – Lincoln Laboratory ETS, New Mexico MPS 433138
2012 09 15.37349 01 40 07.45 +03 43 11.3 19.7   704 – Lincoln Laboratory ETS, New Mexico MPS 433138
2012 09 18.30691 01 38 21.73 +03 40 44.8 19.2 V 691 – Steward Observatory, Kitt Peak-Spacewatch MPS 433138
